Regional Weather Roundup
Issued by NWS Binghamton, NY

Home | Current Version | Previous Version | Text Only | Print | Product List | Glossary On
Versions: 1 2 3 4 5 6 7 8 9 10 11 12 13 14 15 16 17 18 19 20 21 22 23 24 25 26 27 28 29 30 31 32 33 34 35 36 37 38 39 40 41 42 43 44 45 46 47 48 49
715
ASUS41 KBGM 080010
RWRBGM

REGIONAL WEATHER ROUNDUP
NATIONAL WEATHER SERVICE BINGHAMTON NY
700 PM EST SUN FEB 07 2016

Note: "fair" indicates few or no clouds below 12,000 feet with no
significant weather and/or obstructions to visibility.

* = Station(s) that does not report precipitation, such as rain,
snow, etc, also no thunder or fog.

!NYZ009-015>018-022>025-036-037-044>046-055>057-062-080100
...CENTRAL NEW YORK...

CITY           SKY/WX    TMP DP  RH WIND       PRES   REMARKS
BINGHAMTON     CLEAR     37  20  50 CALM      29.93F
CORTLAND       FAIR      30  25  80 CALM      29.96F
DANSVILLE      CLOUDY    42  25  50 S6        29.93S
ELMIRA         CLEAR     29  24  82 CALM      29.95F
ITHACA         CLEAR     29  22  75 E5        29.96F WCI  24
HORNELL        CLEAR     36  27  69 SE7       29.96S WCI  30
MONTICELLO     PTCLDY    36  19  51 E3        29.99R
PENN YAN       CLEAR     32  24  72 SE5       29.95F WCI  27
ROME           CLEAR     35  23  61 E8        30.02F WCI  29
SIDNEY         CLEAR     34  27  75 CALM      29.96F
SYRACUSE       MOCLDY    34  24  67 NE6       29.99F WCI  29
$$

!PAZ038>040-043-044-047-048-072-080100
...NORTHEAST PENNSYLVANIA...

CITY           SKY/WX    TMP DP  RH WIND       PRES   REMARKS
HAZLETON       CLOUDY    36  23  60 CALM      29.97R
SCRANTON       PTCLDY    39  22  50 E5        29.96S
$$
&&
KEY
WCI = WIND CHILL INDEX
VSB = VISIBILITY
HX  = HEAT INDEX
$$




USA.gov is the U.S. government's official web portal to all federal, state and local government web resources and services.